Location: Casco Volunteer Fire Department
(44.5576°N, 87.6146°W)
Time: 14:53:23
(UTC+00:00)

DMSP B5D1-3 - Visible Passes

Search period start: 11 April 2026 00:00
Search period end: 21 April 2026 00:00
Orbit: 758 x 772 km, 98.5° (Epoch: 11 April)

Date Brightness Start Highest point End Pass type
(mag) Time Alt. Az. Time Alt. Az. Time Alt. Az.
11 Apr 6.7 01:48:53 10° N 01:53:09 28° WNW 01:57:24 10° WSW visible
12 Apr 5.3 01:11:35 10° N 01:16:33 58° WNW 01:21:30 10° SSW visible
13 Apr 7.5 02:14:55 10° NNW 02:18:13 18° WNW 02:21:32 10° W visible
13 Apr 7.7 10:14:31 10° E 10:17:31 16° ENE 10:20:30 10° NNE visible
14 Apr 6.3 01:37:12 10° N 01:41:46 35° WNW 01:46:18 10° SW visible
15 Apr 4.8 01:00:03 10° N 01:05:07 74° WNW 01:10:08 10° SSW visible
15 Apr 8.0 02:41:54 10° NW 02:43:12 11° NW 02:44:29 10° WNW visible
16 Apr 7.2 02:03:04 10° NNW 02:06:53 22° WNW 02:10:40 10° WSW visible
16 Apr 7.9 10:04:02 10° E 10:06:12 13° ENE 10:08:23 10° NNE visible
17 Apr 5.9 01:25:34 10° N 01:30:22 43° WNW 01:35:07 10° SW visible
18 Apr 7.7 02:29:25 10° NNW 02:31:53 14° WNW 02:34:21 10° W visible
18 Apr 7.5 10:27:32 10° ESE 10:31:12 20° ENE 10:34:53 10° NNE visible
19 Apr 6.9 01:51:19 10° N 01:55:30 27° WNW 01:59:41 10° WSW visible
19 Apr 8.3 09:54:34 10° ENE 09:54:55 10° NE 09:55:15 10° NE visible
20 Apr 5.4 01:13:59 10° N 01:18:55 55° WNW 01:23:49 10° SSW visible
